map of ABV home
Great Circle Mapper logo
ABV - Airport
Location
City:  Abuja, Nigeria
Name:Nnamdi Azikiwe International Airport
ICAO / IATA:DNAA / ABV

Details
Type:Airport (Aerodrome, Airfield)
Use:Public/Civil, International (customs port of entry)
Latitude:900'24"N (9.006792)
Longitude:715'47"E (7.263172)
Datum:WGS 1984
Elevation:1123 ft (342 m)
Variation:1.07W (WMM2015 magnetic declination)
0.10 annual change
Runways:1
Longest:11842 × 197 ft (3609 × 60 m), paved

Time
Time Zone:UTC+1
Local Time:

Weather
METAR:DNAA 262200Z 10004KT CAVOK 26/21 Q1013 NOSIG
TAF:DNAA 270950Z 2712/2818 23008KT 9999 SCT014
TEMPO 2712/2715 BKN015
TEMPO 2714/2720 TS FEW023CB
TEMPO 2715/2718 06010G20KT 5000 TSRA BKN010 SCT019CB
BECMG 2720/2722 CAVOK
BECMG 2806/2808 25010KT 9999 BKN009
TEMPO 2815/2818 TS FEW014 FEW023CB

Related Locations
Nearby:
Farthest:AAU: 12121 mi / 19506 km
Asau, WS

Find:

   beyond  
but within

Other Information
Maps:
NOTAMs:
Links:
Sources:

  
flag of Nigeria   

Sectional Chart

Flight Planning
at skyvector.com

Satellite Image

Google Maps Satellite View

 

Copyright © 2004-2015 Karl L. Swartz. All rights reserved.
The Great Circle Mapper name and logo are trademarks of the Great Circle Mapper.
All other trademarks mentioned herein belong to their respective owners.
Please see credits for attibutions and further copyright information.

  Follow gcmap on Facebook Follow gcmap on Twitter Follow gcmap on Google+

hCard Microformat

Geo Microformat